Regional Weather Roundup
Issued by NWS Raleigh/Durham, NC

Home | Current Version | Previous Version | Text Only | Print | Product List | Glossary On
Versions: 1 2 3 4 5 6 7 8 9 10 11 12 13 14 15 16 17 18 19 20 21 22 23 24 25 26 27 28 29 30 31 32 33 34 35 36 37 38 39 40 41 42 43 44 45 46 47 48 49 50
144
ASUS42 KRAH 090710
RWRRAH
NORTH CAROLINA WEATHER ROUNDUP
NATIONAL WEATHER SERVICE RALEIGH NC
200 AM EST TUE FEB 09 2016

NOTE: "FAIR" INDICATES FEW OR NO CLOUDS BELOW 12,000 FEET WITH NO
SIGNIFICANT WEATHER AND/OR OBSTRUCTIONS TO VISIBILITY.

NCZ001-053-055-056-065-067-090800-
WESTERN NORTH CAROLINA

CITY           SKY/WX    TMP DP  RH WIND       PRES   REMARKS
ASHEVILLE      FLURRIES  30  13  49 N12       29.65R WCI  20
JEFFERSON      FLURRIES  28  19  70 NW16      29.53S WCI  15
MORGANTON      PTCLDY    35  23  62 W9        29.67S WCI  28
HICKORY        CLEAR     32  22  66 W5        29.62S WCI  27
RUTHERFORDTON  MOCLDY    35  20  55 W10G22    29.65S WCI  27
MOUNT AIRY     MOCLDY    30  27  88 CALM      29.62F
BOONE          LGT SNOW  25  22  87 W20G30    29.55R WCI  11
$$

NCZ021-022-025-041-071-084-088-090800-
CENTRAL NORTH CAROLINA

CITY           SKY/WX    TMP DP  RH WIND       PRES   REMARKS
CHARLOTTE      CLOUDY    38  28  67 W5        29.65F WCI  34
GREENSBORO     CLOUDY    33  28  81 W3        29.61F
WINSTON-SALEM  CLOUDY    35  25  66 CALM      29.62F
RALEIGH-DURHAM CLOUDY    37  36  96 CALM      29.61F
FORT BRAGG     PTCLDY    37  35  94 W6        29.61S WCI  32
FAYETTEVILLE   PTCLDY    38  36  92 W7        29.62S WCI  33
BURLINGTON     CLOUDY    37  28  70 NW7       29.60F WCI  32
LAURINBURG     MOCLDY    36  36 100 W3        29.64S
$$

NCZ011-015-027-028-043-044-047-080-103-090800-
NORTHEASTERN NORTH CAROLINA

CITY           SKY/WX    TMP DP  RH WIND       PRES   REMARKS
ROCKY MT-WILSO CLOUDY    39  39 100 SW3       29.59F
GREENVILLE     MOCLDY    39  39 100 W3        29.62F
WASHINGTON     CLOUDY    39  38  94 CALM      29.58F
ELIZABETH CITY PTCLDY    40  38  93 W6        29.56F
MANTEO         CLOUDY    40  40  97 CALM      29.57F
CAPE HATTERAS  CLOUDY    45  38  76 VRB3      29.60S
$$

NCZ078-087-090-091-093-098-101-090800-
SOUTHEASTERN NORTH CAROLINA

CITY           SKY/WX    TMP DP  RH WIND       PRES   REMARKS
LUMBERTON      CLEAR     37  36  96 W5        29.63S FOG     WCI  33
GOLDSBORO      PTCLDY    39  39 100 W7        29.59F WCI  34
KINSTON        PTCLDY    39  39  99 CALM      29.61R
KENANSVILLE    MOCLDY    40  40  99 CALM      29.62S
NEW BERN       CLOUDY    42  38  85 W6        29.60F
CHERRY POINT   CLOUDY    44  39  82 W10       29.60S
BEAUFORT       CLOUDY    45  38  76 W8        29.60S
JACKSONVILLE   CLOUDY    44  40  85 W10       29.60S
WILMINGTON     CLOUDY    46  40  79 W10       29.63R
$$





USA.gov is the U.S. government's official web portal to all federal, state and local government web resources and services.